[[{"header":{"parameterUnit":"m.s-1","parameterCategory":1,"la1":30.2991,"la2":30.254,"lo1":-89.0895,"lo2":-89.0444,"dy":0.0017,"dx":0.0017,"nx":28,"ny":28,"refTime":"2023-09-11T03:00:00:Z","depth":0,"parameterNumber":2,"parameterNumberName":"U-component_of_WINDS"},"data":[0,0,0,0,0,0,0,0,0,0,0,0,0,0,0,0,0,0,0,0,0,0,0,0,0,0,0,0,0,0,0,0,0,0,0,0,0,0,0,0,0,0,0,0,0,0,0,0,0,0,0,0,0,0,0,0,0,0,-2.7669,-2.7669,0,-2.7654,-2.7654,-2.7654,-2.7569,-2.7567,-2.7565,-2.7563,-2.7549,-2.7551,-2.7552,0,0,0,0,0,0,0,0,0,0,0,0,0,-2.7623,-2.7624,-2.7669,-2.7669,-2.7668,-2.7655,-2.7654,-2.7654,-2.7569,-2.7567,-2.7564,-2.7562,-2.7548,-2.755,-2.7552,0,0,0,0,0,0,0,0,0,0,0,0,0,-2.7629,-2.7625,-2.7669,-2.7624,-2.762,-2.7655,-2.7654,-2.7654,-2.757,-2.7567,-2.7563,-2.7561,-2.7548,-2.755,-2.7552,-2.7629,0,0,-2.756,-2.7561,0,0,0,0,0,0,0,0,-2.7629,-2.7631,-2.7631,-2.7627,-2.7623,-2.761,-2.7633,-2.7646,-2.757,-2.7589,-2.7563,-2.7559,-2.7572,-2.7572,-2.7576,-2.7628,-2.7627,-2.756,-2.7561,-2.7562,-2.7563,0,0,0,0,0,0,0,-2.7629,-2.7631,-2.7663,-2.7631,-2.7626,-2.7605,-2.7603,-2.7635,-2.7598,-2.7587,-2.7581,-2.758,-2.7569,-2.7574,-2.7575,-2.7627,-2.756,-2.7562,-2.7563,-2.7564,-2.7739,-2.7742,0,0,0,0,0,0,-2.7634,-2.7631,-2.7663,-2.7663,-2.7618,-2.7609,-2.7606,-2.7617,-2.7597,-2.7591,-2.7583,-2.7576,-2.7572,-2.7573,-2.7574,-2.766,-2.7562,-2.7564,-2.7566,-2.7736,-2.774,-2.7743,0,0,0,0,0,0,-2.7634,-2.7638,-2.7664,-2.7645,-2.7647,-2.7613,-2.7626,-2.7619,-2.7624,-2.7594,-2.7587,-2.7595,-2.7569,-2.7571,-2.7615,-2.7659,-2.7565,-2.7568,-2.7732,-2.7737,-2.7742,-2.7834,0,0,0,0,0,0,-2.7633,-2.7638,-2.7667,-2.7647,-2.7648,-2.7705,-2.7629,-2.7621,-2.7628,-2.7619,-2.7603,-2.7598,-2.7567,-2.7612,-2.7618,-2.766,-2.7569,-2.7728,-2.7734,-2.774,-2.7827,-2.7841,-2.7854,0,0,0,0,0,-2.7631,-2.7694,-2.7669,-2.7673,-2.7683,-2.7708,-2.7709,-2.7672,-2.7632,-2.766,-2.7641,-2.7598,-2.7654,-2.7618,-2.7623,-2.7667,-2.7725,-2.7733,-2.774,-2.7821,-2.7838,-2.7853,0,0,0,0,0,0,-2.772,-2.769,-2.7662,-2.772,-2.7717,-2.7693,-2.7727,-2.7692,-2.7701,-2.7692,-2.7646,-2.7644,-2.7694,-2.7685,-2.7645,-2.7739,-2.7682,-2.7691,-2.7742,-2.7758,-2.7772,-2.7771,-2.7571,0,0,0,0,0,-2.7747,-2.7769,-2.7742,-2.7796,-2.7796,-2.7762,-2.7772,-2.7743,-2.7739,-2.7737,-2.7721,-2.7719,-2.7735,-2.7747,-2.7761,-2.7826,-2.782,-2.7859,-2.7873,-2.7884,-2.7891,-2.7923,-2.7939,-2.7768,-2.7767,-2.7767,0,0,-2.7801,-2.7788,-2.7805,-2.7813,-2.7807,-2.7831,-2.7762,-2.779,-2.7807,-2.7742,-2.7781,-2.777,-2.7764,-2.7819,-2.7842,-2.7813,-2.7938,-2.7893,-2.7902,-2.7903,-2.7932,-2.7948,-2.7963,-2.7772,-2.7772,-2.7771,0,0,-2.7911,-2.7905,-2.7947,-2.7943,-2.7936,-2.7913,-2.7924,-2.7906,-2.7895,-2.7935,-2.7885,-2.7906,-2.7936,-2.7933,-2.7935,-2.8046,-2.8006,-2.8052,-2.8121,-2.8153,-2.8166,-2.8178,-2.8214,-2.8229,-2.806,-2.806,-2.806,0,-2.798,-2.8013,-2.7974,-2.8005,-2.8009,-2.7952,-2.7994,-2.7992,-2.799,-2.7994,-2.7962,-2.7998,-2.799,-2.8042,-2.8069,-2.8074,-2.8083,-2.8052,-2.8168,-2.8179,-2.8189,-2.8223,-2.8238,-2.8065,-2.8065,-2.8064,-2.8064,0,-2.8096,-2.8121,-2.8156,-2.8154,-2.8163,-2.82,-2.8166,-2.8181,-2.8152,-2.8133,-2.8174,-2.8163,-2.8172,-2.8183,-2.8156,-2.8232,-2.8213,-2.8176,-2.8117,-2.8211,-2.8243,-2.8256,-2.8073,-2.8071,-2.8069,-2.8068,0,0,-2.826,-2.8236,-2.8249,-2.8247,-2.8235,-2.8253,-2.8288,-2.8296,-2.8308,-2.831,-2.8336,-2.8363,-2.8328,-2.8331,-2.8303,-2.8332,-2.8417,-2.829,-2.8289,-2.8311,-2.8496,-2.8522,-2.8538,-2.8392,-2.8395,-2.8397,-2.8496,0,-2.8363,-2.8419,-2.8385,-2.8446,-2.8466,-2.8413,-2.8442,-2.8438,-2.8422,-2.8438,-2.842,-2.8439,-2.8392,-2.8393,-2.8419,-2.8401,-2.8453,-2.8394,-2.8415,-2.8416,-2.8414,-2.8555,-2.8583,-2.8676,-2.8508,-2.851,-2.8512,0,-2.849,-2.8495,-2.8558,-2.8541,-2.8548,-2.8576,-2.858,-2.8597,-2.8591,-2.8577,-2.8581,-2.8547,-2.8579,-2.8525,-2.8568,-2.8528,-2.8536,-2.8528,-2.8531,-2.8528,-2.8467,-2.8553,-2.8706,-2.8719,-2.8531,-2.853,-2.8528,0,-2.8598,-2.8622,-2.8662,-2.8662,-2.8644,-2.8664,-2.8658,-2.8649,-2.8656,-2.8662,-2.8665,-2.8675,-2.868,-2.8688,-2.8657,-2.862,-2.8704,-2.8647,-2.8691,-2.8692,-2.8708,-2.8707,-2.886,-2.8719,-2.8719,-2.8719,-2.8719,0,-2.8715,-2.8755,-2.871,-2.8734,-2.8777,-2.8739,-2.8783,-2.8771,-2.8764,-2.8784,-2.874,-2.8761,-2.872,-2.8737,-2.8714,-2.8751,-2.8755,-2.8744,-2.8736,-2.8745,-2.8746,-2.8747,-2.8738,-2.8723,-2.8722,-2.8721,-2.872,0,-2.8842,-2.8814,-2.8853,-2.8833,-2.8829,-2.8861,-2.8844,-2.8865,-2.8847,-2.8874,-2.8878,-2.8849,-2.8866,-2.8837,-2.8852,-2.8836,-2.8888,-2.8872,-2.8889,-2.8883,-2.8928,-2.8923,-2.9084,-2.9102,-2.8953,-2.8955,-2.8956,0,-2.8916,-2.8945,-2.8928,-2.8938,-2.8934,-2.8952,-2.8958,-2.8923,-2.8932,-2.8928,-2.895,-2.8963,-2.8971,-2.9002,-2.8982,-2.8993,-2.8975,-2.9031,-2.8976,-2.8984,-2.8972,-2.8969,-2.897,-2.9041,-2.9043,-2.9044,-2.9045,0,-2.9049,-2.9034,-2.9045,-2.9052,-2.9062,-2.9066,-2.9066,-2.9078,-2.904,-2.9052,-2.9069,-2.9076,-2.909,-2.9103,-2.9109,-2.9103,-2.9067,-2.9064,-2.9074,-2.9081,-2.9088,-2.9082,-2.8916,-2.9059,-2.9057,-2.9057,-2.9056,-2.9055,-2.9149,-2.9172,-2.9163,-2.9177,-2.9174,-2.9175,-2.9194,-2.9178,-2.9191,-2.9199,-2.9178,-2.9199,-2.9193,-2.9197,-2.9194,-2.9211,-2.9186,-2.9202,-2.9205,-2.9208,-2.9214,-2.9089,-2.9212,-2.9212,-2.9211,-2.9211,-2.9211,0,-2.9277,-2.9269,-2.9282,-2.9284,-2.9295,-2.9262,-2.9262,-2.9273,-2.9292,-2.9289,-2.9298,-2.9317,-2.9331,-2.9313,-2.9322,-2.9339,-2.9323,-2.9342,-2.9339,-2.9337,-2.9237,-2.9225,-2.9355,-2.9355,-2.9355,-2.9355,-2.9355,-2.9355,-2.9344,-2.938,-2.9364,-2.9398,-2.9389,-2.9409,-2.9411,-2.9413,-2.941,-2.9432,-2.9443,-2.9431,-2.9422,-2.9431,-2.9442,-2.9436,-2.944,-2.9465,-2.9453,-2.9359,-2.9345,-2.9331,-2.932,-2.9467,-2.9467,-2.9552,-2.9552,-2.9553]},{"header":{"parameterUnit":"m.s-1","parameterCategory":1,"la1":30.2991,"la2":30.254,"lo1":-89.0895,"lo2":-89.0444,"dy":0.0017,"dx":0.0017,"nx":28,"ny":28,"refTime":"2023-09-11T03:00:00:Z","depth":0,"parameterNumber":3,"parameterNumberName":"V-component_of_WINDS"},"data":[0,0,0,0,0,0,0,0,0,0,0,0,0,0,0,0,0,0,0,0,0,0,0,0,0,0,0,0,0,0,0,0,0,0,0,0,0,0,0,0,0,0,0,0,0,0,0,0,0,0,0,0,0,0,0,0,0,0,-2.6158,-2.6159,0,-2.6223,-2.6223,-2.6224,-2.6228,-2.6227,-2.6226,-2.6226,-2.6287,-2.629,-2.6292,0,0,0,0,0,0,0,0,0,0,0,0,0,-2.6033,-2.6035,-2.6158,-2.6159,-2.616,-2.6223,-2.6223,-2.6224,-2.6228,-2.6227,-2.6226,-2.6225,-2.6287,-2.6289,-2.6292,0,0,0,0,0,0,0,0,0,0,0,0,0,-2.6091,-2.6036,-2.6158,-2.6169,-2.6171,-2.6222,-2.6224,-2.6225,-2.6228,-2.6227,-2.6226,-2.6225,-2.6286,-2.6289,-2.6293,-2.6336,0,0,-2.6303,-2.6305,0,0,0,0,0,0,0,0,-2.6088,-2.6096,-2.6167,-2.6168,-2.617,-2.6216,-2.6202,-2.6262,-2.6228,-2.6206,-2.6225,-2.6224,-2.6264,-2.627,-2.6284,-2.6339,-2.6342,-2.6304,-2.6306,-2.6307,-2.6308,0,0,0,0,0,0,0,-2.6084,-2.6093,-2.6183,-2.6168,-2.617,-2.6169,-2.6176,-2.6213,-2.624,-2.6208,-2.6208,-2.6216,-2.6265,-2.6281,-2.6285,-2.6343,-2.6304,-2.6307,-2.6309,-2.631,-2.6436,-2.6437,0,0,0,0,0,0,-2.6078,-2.609,-2.6181,-2.6185,-2.6126,-2.6173,-2.618,-2.6202,-2.624,-2.6245,-2.6217,-2.6216,-2.6275,-2.6281,-2.6288,-2.634,-2.6307,-2.6311,-2.6313,-2.6435,-2.6436,-2.6437,0,0,0,0,0,0,-2.6076,-2.6087,-2.6179,-2.6138,-2.6149,-2.6176,-2.62,-2.6204,-2.622,-2.6247,-2.6251,-2.6228,-2.6274,-2.6283,-2.6324,-2.6342,-2.6312,-2.6315,-2.6433,-2.6435,-2.6437,-2.6446,0,0,0,0,0,0,-2.6072,-2.6086,-2.6103,-2.6138,-2.6152,-2.6216,-2.6202,-2.6206,-2.6226,-2.6226,-2.6259,-2.6263,-2.6274,-2.6319,-2.6328,-2.6347,-2.6318,-2.6432,-2.6434,-2.6436,-2.6444,-2.6448,-2.6451,0,0,0,0,0,-2.6068,-2.6103,-2.6104,-2.6115,-2.6175,-2.6217,-2.6224,-2.6238,-2.6228,-2.6245,-2.6263,-2.6262,-2.6339,-2.6323,-2.6333,-2.6353,-2.643,-2.6433,-2.6436,-2.6443,-2.6447,-2.6451,0,0,0,0,0,0,-2.6068,-2.6108,-2.611,-2.6158,-2.6184,-2.6217,-2.624,-2.6242,-2.6271,-2.6269,-2.6283,-2.6291,-2.6331,-2.6347,-2.6328,-2.6397,-2.6384,-2.6388,-2.6385,-2.639,-2.6394,-2.6388,-2.6321,0,0,0,0,0,-2.6074,-2.6106,-2.6138,-2.6177,-2.6191,-2.6213,-2.6232,-2.624,-2.6267,-2.6278,-2.6298,-2.6324,-2.6354,-2.6373,-2.6402,-2.6447,-2.6453,-2.6466,-2.6469,-2.6472,-2.6476,-2.6499,-2.6505,-2.6446,-2.6446,-2.6446,0,0,-2.6086,-2.6111,-2.6131,-2.6178,-2.6199,-2.6231,-2.6222,-2.6256,-2.6279,-2.6282,-2.6323,-2.6339,-2.6368,-2.6411,-2.6431,-2.6425,-2.6493,-2.6476,-2.6478,-2.648,-2.6503,-2.6508,-2.6513,-2.6448,-2.6448,-2.6448,0,0,-2.6123,-2.6147,-2.6181,-2.6203,-2.6236,-2.6251,-2.6259,-2.6293,-2.6304,-2.6345,-2.6348,-2.6375,-2.6427,-2.6447,-2.6464,-2.651,-2.6509,-2.6519,-2.6536,-2.6559,-2.6564,-2.6568,-2.6583,-2.6588,-2.6522,-2.6522,-2.6522,0,-2.6133,-2.6183,-2.6198,-2.6232,-2.6252,-2.6259,-2.6293,-2.6313,-2.6353,-2.6366,-2.6359,-2.6424,-2.6444,-2.6492,-2.6503,-2.6517,-2.6525,-2.6514,-2.6562,-2.6567,-2.6571,-2.6585,-2.6591,-2.6523,-2.6523,-2.6523,-2.6523,0,-2.6193,-2.6227,-2.625,-2.629,-2.6313,-2.6347,-2.6367,-2.6388,-2.6394,-2.6409,-2.645,-2.6475,-2.6508,-2.6521,-2.6527,-2.6569,-2.6564,-2.656,-2.6546,-2.6577,-2.659,-2.6596,-2.6524,-2.6524,-2.6524,-2.6524,0,0,-2.6231,-2.628,-2.6289,-2.6307,-2.6344,-2.6369,-2.6403,-2.6437,-2.6454,-2.6482,-2.6509,-2.6553,-2.6549,-2.6569,-2.6577,-2.6598,-2.663,-2.6591,-2.6591,-2.6596,-2.6677,-2.6679,-2.6685,-2.6631,-2.6632,-2.6633,-2.6674,0,-2.6272,-2.6333,-2.6349,-2.64,-2.6431,-2.6437,-2.6466,-2.6491,-2.6506,-2.6533,-2.6549,-2.6579,-2.6573,-2.6585,-2.6605,-2.6622,-2.6646,-2.662,-2.6655,-2.6656,-2.6646,-2.6692,-2.6694,-2.6731,-2.6679,-2.668,-2.6681,0,-2.6327,-2.6357,-2.6412,-2.6445,-2.6458,-2.6485,-2.6517,-2.6543,-2.6571,-2.6581,-2.6603,-2.6609,-2.6643,-2.6629,-2.6674,-2.6655,-2.6671,-2.6681,-2.6683,-2.6686,-2.6669,-2.6694,-2.6744,-2.6749,-2.669,-2.6689,-2.6688,0,-2.6348,-2.6402,-2.6442,-2.6457,-2.6497,-2.6515,-2.6532,-2.6559,-2.6579,-2.6607,-2.6619,-2.665,-2.6667,-2.669,-2.6704,-2.6693,-2.6748,-2.6736,-2.6755,-2.6755,-2.6765,-2.6764,-2.6816,-2.6778,-2.6778,-2.6778,-2.6777,0,-2.6391,-2.6424,-2.6452,-2.6476,-2.6513,-2.653,-2.6565,-2.6582,-2.6606,-2.6633,-2.664,-2.6665,-2.6683,-2.6709,-2.6721,-2.6756,-2.6763,-2.6771,-2.6773,-2.6769,-2.6768,-2.6778,-2.6776,-2.6779,-2.6779,-2.6778,-2.6778,0,-2.6419,-2.644,-2.6484,-2.6518,-2.6527,-2.6553,-2.6581,-2.6604,-2.662,-2.6653,-2.6662,-2.6685,-2.6717,-2.6734,-2.6773,-2.6781,-2.682,-2.6821,-2.681,-2.6811,-2.6829,-2.6827,-2.6889,-2.6897,-2.6854,-2.6855,-2.6855,0,-2.6445,-2.647,-2.6508,-2.6527,-2.6545,-2.6575,-2.6596,-2.6613,-2.6633,-2.6667,-2.6686,-2.6718,-2.6745,-2.6795,-2.6814,-2.6844,-2.6846,-2.6865,-2.685,-2.6845,-2.6844,-2.6842,-2.6844,-2.6867,-2.6868,-2.6868,-2.6868,0,-2.6487,-2.6496,-2.6526,-2.6559,-2.6583,-2.661,-2.6636,-2.6651,-2.6673,-2.6695,-2.6728,-2.6749,-2.679,-2.6821,-2.6852,-2.6868,-2.6871,-2.6873,-2.6879,-2.6875,-2.6867,-2.687,-2.6816,-2.6871,-2.6871,-2.6871,-2.6871,-2.6871,-2.6514,-2.6536,-2.6566,-2.6599,-2.6621,-2.6646,-2.6669,-2.6688,-2.6716,-2.6751,-2.676,-2.6794,-2.6821,-2.6864,-2.688,-2.6907,-2.6903,-2.6911,-2.6913,-2.6915,-2.6915,-2.6864,-2.6913,-2.6912,-2.6912,-2.6912,-2.6912,0,-2.6555,-2.6575,-2.6605,-2.6642,-2.6667,-2.667,-2.6699,-2.672,-2.6751,-2.6776,-2.6803,-2.684,-2.6871,-2.6893,-2.6924,-2.6941,-2.6943,-2.6948,-2.6946,-2.6949,-2.6917,-2.6909,-2.6946,-2.6946,-2.6946,-2.6946,-2.6946,-2.6946,-2.6579,-2.6618,-2.663,-2.6679,-2.6699,-2.6734,-2.675,-2.6772,-2.6792,-2.6834,-2.686,-2.6875,-2.6899,-2.6932,-2.696,-2.6965,-2.6975,-2.698,-2.6986,-2.6955,-2.6952,-2.6948,-2.694,-2.6983,-2.6983,-2.7015,-2.7016,-2.7016]}]]